Location: Leeds
(37.2390°N, 113.3580°W)
Time: 03:30:15
(UTC-07:00)

ISS - All Passes

Search period start: 18 November 2017 00:00
Search period end: 28 November 2017 00:00
Orbit: 401 x 407 km, 51.6° (Epoch: 18 November)

Date Brightness Start Highest point End Pass type
(mag) Time Alt. Az. Time Alt. Az. Time Alt. Az.
18 Nov - 00:19:45 10° NW 00:21:14 12° NNW 00:22:43 10° N night (unlit)
18 Nov - 03:35:31 10° N 03:36:46 12° NNE 03:38:01 10° NE night (unlit)
18 Nov - 05:10:36 10° NW 05:13:50 57° NE 05:17:01 10° ESE visible
18 Nov - 06:48:39 10° WSW 06:49:55 12° SW 06:51:11 10° SSW visible
18 Nov - 21:48:46 10° SW 21:51:59 57° SE 21:55:12 10° ENE night (unlit)
18 Nov - 23:26:21 10° WNW 23:28:41 18° NNW 23:31:02 10° NNE night (unlit)
19 Nov - 04:18:31 10° NNW 04:21:28 30° NNE 04:24:24 10° E visible
19 Nov - 05:55:09 10° WNW 05:57:51 24° SW 06:00:30 10° S visible
19 Nov - 20:57:00 10° SSW 20:59:48 27° SE 21:02:37 10° ENE night (unlit)
19 Nov - 22:33:20 10° W 22:36:14 28° NNW 22:39:07 10° NNE night (unlit)
20 Nov - 03:26:34 10° NNW 03:29:01 19° NNE 03:31:26 10° ENE night (unlit)
20 Nov - 05:02:30 10° WNW 05:05:40 50° SW 05:08:49 10° SSE visible
20 Nov - 20:06:00 10° SSE 20:07:42 13° SE 20:09:23 10° E night (unlit)
20 Nov - 21:40:38 10° WSW 21:43:50 51° NW 21:47:02 10° NE night (unlit)
20 Nov - 23:19:53 10° NW 23:20:56 11° NNW 23:21:59 10° N night (unlit)
21 Nov - 02:34:49 10° N 02:36:28 13° NNE 02:38:06 10° NE night (unlit)
21 Nov - 04:10:09 10° NW 04:13:24 75° NE 04:16:39 10° SE visible
21 Nov - 20:48:15 10° SW 20:51:31 76° SE 20:54:48 10° NE night (unlit)
21 Nov - 22:26:14 10° WNW 22:28:19 16° NNW 22:30:25 10° NNE night (unlit)
22 Nov - 03:17:58 10° NW 03:21:03 37° NE 03:24:06 10° ESE night (unlit)
22 Nov - 04:54:57 10° W 04:57:19 19° SW 04:59:40 10° S visible
22 Nov - 19:56:16 10° SSW 19:59:16 34° SE 20:02:17 10° ENE visible
22 Nov - 21:33:04 10° W 21:35:47 24° NNW 21:38:31 10° NNE night (unlit)
23 Nov - 02:25:56 10° NNW 02:28:34 22° NNE 02:31:13 10° E night (unlit)
23 Nov - 04:02:05 10° WNW 04:05:08 38° SW 04:08:11 10° SSE night (unlit)
23 Nov - 19:04:53 10° S 19:07:06 17° SE 19:09:19 10° E visible
23 Nov - 20:40:13 10° WSW 20:43:20 41° NW 20:46:28 10° NE night (unlit)
23 Nov - 22:20:18 10° NNW 22:20:31 10° NNW 22:20:43 10° NNW night (unlit)
24 Nov - 01:34:03 10° NNW 01:36:01 15° NNE 01:37:59 10° ENE night (unlit)
24 Nov - 03:09:37 10° NW 03:12:52 84° SW 03:16:07 10° SE night (unlit)
24 Nov - 19:47:40 10° SW 19:50:57 83° NW 19:54:13 10° NE visible
24 Nov - 21:26:03 10° WNW 21:27:51 14° NNW 21:29:39 10° N night (unlit)
25 Nov - 00:42:35 10° N 00:43:22 11° NNE 00:44:09 10° NNE night (unlit)
25 Nov - 02:17:20 10° NW 02:20:30 46° NE 02:23:39 10° ESE night (unlit)
25 Nov - 03:54:46 10° W 03:56:40 15° SW 03:58:34 10° SSW night (unlit)
25 Nov - 18:55:30 10° SSW 18:58:38 45° SE 19:01:47 10° ENE visible
25 Nov - 20:32:43 10° W 20:35:15 20° NNW 20:37:48 10° NNE visible
26 Nov - 01:25:13 10° NNW 01:28:02 26° NNE 01:30:50 10° E night (unlit)
26 Nov - 03:01:36 10° WNW 03:04:29 29° SW 03:07:21 10° SSE night (unlit)
26 Nov - 18:03:49 10° S 18:06:24 22° SE 18:08:59 10° ENE visible
26 Nov - 19:39:42 10° W 19:42:43 33° NW 19:45:45 10° NNE visible
27 Nov - 00:33:14 10° NNW 00:35:27 17° NNE 00:37:41 10° ENE night (unlit)
27 Nov - 02:08:58 10° NW 02:12:12 64° SW 02:15:25 10° SE night (unlit)
27 Nov - 17:13:25 10° SE 17:14:13 11° SE 17:15:01 10° ESE daylight
27 Nov - 18:47:01 10° WSW 18:50:16 64° NW 18:53:31 10° NE visible
27 Nov - 20:25:48 10° NW 20:27:16 12° NNW 20:28:44 10° N visible
27 Nov - 23:41:29 10° N 23:42:48 12° NNE 23:44:06 10° NE night (unlit)
